LHA95H EDDL-EKCH

Flight info

Callsign LHA95H
Flight time 1h 1m
Altitude 39000
Route MEVEL4T/23L MEVEL Y850 BASUM DCT MAKEL N851 GESKA Z711 MONAK
Aircraft A320/M-SDE3FGHIRWY/LB1

Departure

Time 2026-05-04 18:11
Airport Düsseldorf Airport (EDDL)

Arrival

Time 2026-05-04 19:12
Airport Copenhagen Kastrup Airport (EKCH)
Time Latitude Longitude Altitude Speed Heading
2026-05-04 17:36 51.28254 6.76728 128 ft 0 kts 225°
2026-05-04 18:01 51.28258 6.76734 128 ft 4 kts 226°
2026-05-04 18:01 51.28276 6.76766 123 ft 4 kts 228°
2026-05-04 18:02 51.28311 6.76832 124 ft 4 kts 233°
2026-05-04 18:02 51.28326 6.76867 127 ft 4 kts 237°
2026-05-04 18:02 51.28340 6.76904 124 ft 4 kts 245°
2026-05-04 18:02 51.28346 6.76928 126 ft 0 kts 256°
2026-05-04 18:05 51.28355 6.76907 125 ft 3 kts 310°
2026-05-04 18:06 51.28430 6.76798 124 ft 16 kts 324°
2026-05-04 18:06 51.28505 6.76813 126 ft 10 kts 44°
2026-05-04 18:06 51.28540 6.76886 124 ft 8 kts 53°
2026-05-04 18:07 51.28598 6.77011 126 ft 17 kts 54°
2026-05-04 18:07 51.28666 6.77164 128 ft 17 kts 53°
2026-05-04 18:07 51.28746 6.77311 127 ft 18 kts 51°
2026-05-04 18:07 51.28821 6.77478 128 ft 19 kts 53°
2026-05-04 18:08 51.28905 6.77652 124 ft 20 kts 52°
2026-05-04 18:08 51.28994 6.77839 127 ft 21 kts 53°
2026-05-04 18:08 51.29085 6.78031 129 ft 22 kts 53°
2026-05-04 18:08 51.29178 6.78224 137 ft 21 kts 53°
2026-05-04 18:09 51.29332 6.78540 150 ft 15 kts 37°
2026-05-04 18:09 51.29495 6.78564 152 ft 10 kts 350°
2026-05-04 18:10 51.29545 6.78514 152 ft 8 kts 271°
2026-05-04 18:10 51.29508 6.78447 150 ft 13 kts 232°
2026-05-04 18:10 51.29317 6.78053 139 ft 84 kts 232°
2026-05-04 18:10 51.28828 6.77035 123 ft 144 kts 232°
2026-05-04 18:11 51.28169 6.75631 536 ft 160 kts 233°
2026-05-04 18:11 51.27501 6.74161 1244 ft 165 kts 232°
2026-05-04 18:11 51.26871 6.72588 1897 ft 173 kts 250°
2026-05-04 18:11 51.26893 6.70670 2598 ft 179 kts 290°
2026-05-04 18:12 51.27705 6.69146 3231 ft 188 kts 332°
2026-05-04 18:12 51.29009 6.68522 3654 ft 206 kts 355°
2026-05-04 18:12 51.30528 6.68619 3989 ft 233 kts
2026-05-04 18:12 51.32230 6.68848 4441 ft 257 kts
2026-05-04 18:13 51.34089 6.69067 5061 ft 274 kts
2026-05-04 18:13 51.36015 6.69278 5964 ft 280 kts
2026-05-04 18:13 51.39955 6.69644 7816 ft 286 kts
2026-05-04 18:14 51.41960 6.69682 8759 ft 289 kts
2026-05-04 18:14 51.43981 6.69668 9695 ft 292 kts 360°
2026-05-04 18:14 51.46038 6.69643 10350 ft 305 kts 360°
2026-05-04 18:15 51.50601 6.69606 11025 ft 347 kts
2026-05-04 18:15 51.55519 6.69611 12460 ft 358 kts
2026-05-04 18:15 51.58016 6.69865 13193 ft 362 kts 10°
2026-05-04 18:16 51.60456 6.70959 13930 ft 366 kts 22°
2026-05-04 18:16 51.62714 6.72902 14586 ft 370 kts 36°
2026-05-04 18:16 51.64643 6.75657 15232 ft 373 kts 45°
2026-05-04 18:17 51.68415 6.81541 16531 ft 382 kts 45°
2026-05-04 18:17 51.70338 6.84548 17170 ft 387 kts 45°
2026-05-04 18:17 51.74234 6.90671 18373 ft 396 kts 45°
2026-05-04 18:18 51.76214 6.93803 18885 ft 400 kts 45°
2026-05-04 18:18 51.78212 6.96969 19389 ft 405 kts 45°
2026-05-04 18:18 51.80233 7.00170 19883 ft 409 kts 45°
2026-05-04 18:18 51.82274 7.03409 20371 ft 413 kts 45°
2026-05-04 18:19 51.86413 7.09987 21334 ft 421 kts 45°
2026-05-04 18:19 51.88511 7.13327 21819 ft 425 kts 45°
2026-05-04 18:19 51.90631 7.16704 22289 ft 429 kts 45°
2026-05-04 18:20 51.92772 7.20115 22763 ft 433 kts 45°
2026-05-04 18:20 51.94930 7.23557 23230 ft 437 kts 45°
2026-05-04 18:20 51.97104 7.27031 23656 ft 441 kts 45°
2026-05-04 18:20 51.99298 7.30553 24032 ft 445 kts 45°
2026-05-04 18:21 52.01503 7.34102 24414 ft 448 kts 45°
2026-05-04 18:21 52.03724 7.37675 24784 ft 451 kts 45°
2026-05-04 18:21 52.05963 7.41283 25147 ft 455 kts 45°
2026-05-04 18:21 52.08216 7.44923 25508 ft 458 kts 45°
2026-05-04 18:22 52.10479 7.48583 25859 ft 461 kts 45°
2026-05-04 18:22 52.12764 7.52279 26213 ft 464 kts 45°
2026-05-04 18:22 52.14906 7.55742 26549 ft 467 kts 45°
2026-05-04 18:22 52.17221 7.59488 26903 ft 470 kts 45°
2026-05-04 18:23 52.19546 7.63263 27250 ft 473 kts 45°
2026-05-04 18:23 52.21796 7.66926 27581 ft 476 kts 45°
2026-05-04 18:23 52.23998 7.70516 27897 ft 479 kts 45°
2026-05-04 18:23 52.26358 7.74372 28229 ft 482 kts 45°
2026-05-04 18:24 52.28733 7.78264 28545 ft 485 kts 45°
2026-05-04 18:24 52.31125 7.82186 28842 ft 488 kts 45°
2026-05-04 18:24 52.33529 7.86124 29144 ft 491 kts 45°
2026-05-04 18:24 52.36151 7.89711 29450 ft 492 kts 31°
2026-05-04 18:25 52.39141 7.92466 29738 ft 494 kts 26°
2026-05-04 18:25 52.42177 7.95129 30026 ft 497 kts 26°
2026-05-04 18:25 52.45235 7.97793 30287 ft 499 kts 26°
2026-05-04 18:25 52.48303 8.00456 30653 ft 498 kts 26°
2026-05-04 18:26 52.51365 8.03122 31018 ft 498 kts 26°
2026-05-04 18:26 52.54415 8.05793 31382 ft 498 kts 26°
2026-05-04 18:26 52.57473 8.08486 31742 ft 497 kts 26°
2026-05-04 18:26 52.60519 8.11180 32104 ft 497 kts 26°
2026-05-04 18:27 52.63565 8.13880 32462 ft 497 kts 26°
2026-05-04 18:27 52.66602 8.16578 32828 ft 497 kts 26°
2026-05-04 18:27 52.69647 8.19284 32967 ft 497 kts 25°
2026-05-04 18:27 52.72690 8.21986 32986 ft 496 kts 25°
2026-05-04 18:28 52.75099 8.24112 33010 ft 495 kts 25°
2026-05-04 18:28 52.81178 8.29488 32980 ft 495 kts 25°
2026-05-04 18:29 52.87241 8.34924 32984 ft 496 kts 25°
2026-05-04 18:29 52.93291 8.40369 32991 ft 495 kts 25°
2026-05-04 18:30 53.02378 8.48541 32994 ft 495 kts 25°
2026-05-04 18:31 53.08423 8.53998 32998 ft 494 kts 25°
2026-05-04 18:31 53.14458 8.59475 32998 ft 494 kts 25°
2026-05-04 18:32 53.20541 8.64768 32999 ft 492 kts 22°
2026-05-04 18:32 53.26678 8.69802 32993 ft 491 kts 23°
2026-05-04 18:33 53.32717 8.75165 32996 ft 491 kts 25°
2026-05-04 18:33 53.38669 8.80758 32992 ft 490 kts 25°
2026-05-04 18:34 53.44598 8.86350 32998 ft 489 kts 25°
2026-05-04 18:34 53.50551 8.91884 32995 ft 488 kts 24°
2026-05-04 18:35 53.56496 8.97379 32998 ft 487 kts 24°
2026-05-04 18:35 53.61409 9.01953 33001 ft 485 kts 24°
2026-05-04 18:36 53.67305 9.07478 33001 ft 484 kts 25°
2026-05-04 18:36 53.73181 9.13016 33006 ft 484 kts 25°
2026-05-04 18:37 53.79057 9.18558 32991 ft 483 kts 24°
2026-05-04 18:37 53.84931 9.24089 32991 ft 483 kts 24°
2026-05-04 18:38 53.90792 9.29649 32990 ft 483 kts 25°
2026-05-04 18:38 53.96647 9.35228 32983 ft 482 kts 25°
2026-05-04 18:39 54.02503 9.40820 32994 ft 482 kts 25°
2026-05-04 18:39 54.08349 9.46421 32999 ft 483 kts 25°
2026-05-04 18:40 54.14199 9.52044 32999 ft 483 kts 25°
2026-05-04 18:40 54.19946 9.57584 33004 ft 483 kts 25°
2026-05-04 18:41 54.25799 9.63237 33004 ft 483 kts 25°
2026-05-04 18:41 54.31645 9.68916 33005 ft 483 kts 25°
2026-05-04 18:42 54.37485 9.74596 33003 ft 482 kts 25°
2026-05-04 18:42 54.43042 9.81095 32995 ft 491 kts 41°
2026-05-04 18:43 54.47856 9.89417 32989 ft 491 kts 42°
2026-05-04 18:43 54.52651 9.97815 32989 ft 492 kts 42°
2026-05-04 18:44 54.57431 10.06225 32994 ft 492 kts 42°
2026-05-04 18:44 54.62222 10.14634 32995 ft 491 kts 42°
2026-05-04 18:45 54.67007 10.23064 32991 ft 491 kts 42°
2026-05-04 18:45 54.71777 10.31530 32992 ft 491 kts 42°
2026-05-04 18:46 54.76507 10.39958 32994 ft 491 kts 43°
2026-05-04 18:46 54.78889 10.44198 32786 ft 493 kts 42°
2026-05-04 18:46 54.81299 10.48481 31689 ft 500 kts 42°
2026-05-04 18:46 54.83729 10.52805 30910 ft 500 kts 42°
2026-05-04 18:47 54.86081 10.57011 30178 ft 503 kts 42°
2026-05-04 18:47 54.88518 10.61389 29384 ft 506 kts 42°
2026-05-04 18:47 54.90957 10.65783 29019 ft 505 kts 42°
2026-05-04 18:47 54.93377 10.70156 28433 ft 499 kts 43°
2026-05-04 18:48 54.95764 10.74485 27780 ft 492 kts 43°
2026-05-04 18:48 54.98120 10.78756 27114 ft 487 kts 43°
2026-05-04 18:48 55.00456 10.82982 26449 ft 481 kts 43°
2026-05-04 18:48 55.02767 10.87162 25799 ft 476 kts 43°
2026-05-04 18:49 55.05052 10.91307 25155 ft 471 kts 43°
2026-05-04 18:49 55.07309 10.95415 24532 ft 466 kts 44°
2026-05-04 18:49 55.09537 10.99481 23919 ft 461 kts 44°
2026-05-04 18:49 55.11738 11.03508 23272 ft 456 kts 44°
2026-05-04 18:50 55.13906 11.07484 22560 ft 444 kts 44°
2026-05-04 18:50 55.15991 11.11319 21917 ft 425 kts 44°
2026-05-04 18:50 55.17988 11.14992 21289 ft 410 kts 44°
2026-05-04 18:50 55.19938 11.18578 20670 ft 403 kts 44°
2026-05-04 18:51 55.21869 11.22132 20069 ft 400 kts 44°
2026-05-04 18:51 55.23771 11.25637 19477 ft 395 kts 44°
2026-05-04 18:51 55.25657 11.29111 18898 ft 391 kts 43°
2026-05-04 18:51 55.27523 11.32550 18328 ft 388 kts 43°
2026-05-04 18:52 55.29374 11.35977 17685 ft 382 kts 43°
2026-05-04 18:52 55.31169 11.39312 17051 ft 371 kts 44°
2026-05-04 18:52 55.32918 11.42569 16418 ft 362 kts 43°
2026-05-04 18:52 55.34624 11.45745 15969 ft 350 kts 43°
2026-05-04 18:53 55.36253 11.48783 15713 ft 334 kts 43°
2026-05-04 18:53 55.37811 11.51693 15463 ft 319 kts 43°
2026-05-04 18:53 55.39299 11.54476 15216 ft 307 kts 43°
2026-05-04 18:53 55.40743 11.57181 14965 ft 300 kts 43°
2026-05-04 18:54 55.42167 11.59853 14746 ft 298 kts 43°
2026-05-04 18:54 55.43582 11.62502 14525 ft 296 kts 43°
2026-05-04 18:54 55.45081 11.64942 14268 ft 293 kts 37°
2026-05-04 18:54 55.46611 11.67309 14017 ft 292 kts 37°
2026-05-04 18:55 55.48131 11.69676 13772 ft 291 kts 37°
2026-05-04 18:55 55.51148 11.74403 13231 ft 288 kts 37°
2026-05-04 18:55 55.52642 11.76748 12963 ft 287 kts 37°
2026-05-04 18:56 55.54129 11.79082 12699 ft 285 kts 37°
2026-05-04 18:56 55.55607 11.81403 12425 ft 284 kts 37°
2026-05-04 18:56 55.57079 11.83720 12162 ft 283 kts 38°
2026-05-04 18:56 55.58541 11.86029 11893 ft 281 kts 38°
2026-05-04 18:57 55.59996 11.88327 11625 ft 280 kts 38°
2026-05-04 18:57 55.61444 11.90608 11355 ft 278 kts 37°
2026-05-04 18:57 55.62888 11.92881 11085 ft 277 kts 37°
2026-05-04 18:57 55.64320 11.95141 10817 ft 275 kts 38°
2026-05-04 18:58 55.65739 11.97388 10544 ft 274 kts 38°
2026-05-04 18:58 55.67156 11.99638 10279 ft 272 kts 38°
2026-05-04 18:58 55.68546 12.01845 10008 ft 271 kts 38°
2026-05-04 18:58 55.69967 12.04096 9727 ft 270 kts 38°
2026-05-04 18:59 55.71324 12.06378 9407 ft 270 kts 46°
2026-05-04 18:59 55.72378 12.09145 9094 ft 272 kts 62°
2026-05-04 18:59 55.73022 12.12293 8784 ft 272 kts 77°
2026-05-04 18:59 55.73223 12.15623 8474 ft 271 kts 92°
2026-05-04 19:00 55.73053 12.18937 8146 ft 269 kts 97°
2026-05-04 19:00 55.72865 12.21902 7863 ft 268 kts 97°
2026-05-04 19:00 55.72668 12.25074 7552 ft 267 kts 97°
2026-05-04 19:00 55.72475 12.28210 7254 ft 265 kts 97°
2026-05-04 19:01 55.72289 12.31238 6950 ft 264 kts 96°
2026-05-04 19:01 55.72091 12.34464 6626 ft 263 kts 97°
2026-05-04 19:01 55.71888 12.37674 6341 ft 261 kts 97°
2026-05-04 19:01 55.71689 12.40827 6019 ft 260 kts 96°
2026-05-04 19:02 55.71488 12.44040 5686 ft 258 kts 96°
2026-05-04 19:02 55.71295 12.47144 5388 ft 256 kts 95°
2026-05-04 19:02 55.71303 12.49930 5105 ft 253 kts 82°
2026-05-04 19:02 55.71679 12.52957 4777 ft 251 kts 69°
2026-05-04 19:03 55.72389 12.55757 4472 ft 248 kts 60°
2026-05-04 19:03 55.73173 12.58468 4208 ft 246 kts 60°
2026-05-04 19:03 55.73941 12.61153 4041 ft 244 kts 60°
2026-05-04 19:03 55.74792 12.63749 4033 ft 242 kts 51°
2026-05-04 19:04 55.75908 12.65955 4033 ft 239 kts 38°
2026-05-04 19:04 55.77166 12.67893 4030 ft 240 kts 38°
2026-05-04 19:04 55.78425 12.69843 4028 ft 239 kts 37°
2026-05-04 19:04 55.79682 12.71776 4027 ft 239 kts 37°
2026-05-04 19:05 55.80937 12.73726 4023 ft 240 kts 38°
2026-05-04 19:05 55.82186 12.75694 4023 ft 240 kts 38°
2026-05-04 19:05 55.83407 12.77712 4024 ft 240 kts 40°
2026-05-04 19:05 55.84566 12.79789 3956 ft 233 kts 51°
2026-05-04 19:06 55.85133 12.82423 3848 ft 231 kts 86°
2026-05-04 19:06 55.84817 12.85162 3683 ft 225 kts 117°
2026-05-04 19:06 55.84029 12.87553 3470 ft 223 kts 124°
2026-05-04 19:06 55.83171 12.89848 3232 ft 222 kts 125°
2026-05-04 19:07 55.82238 12.92017 3050 ft 219 kts 142°
2026-05-04 19:07 55.80900 12.93145 3015 ft 213 kts 176°
2026-05-04 19:07 55.79471 12.92842 3015 ft 205 kts 208°
2026-05-04 19:07 55.78323 12.91399 3029 ft 202 kts 225°
2026-05-04 19:08 55.77272 12.89736 3027 ft 203 kts 225°
2026-05-04 19:08 55.76216 12.88072 3026 ft 203 kts 225°
2026-05-04 19:08 55.75156 12.86411 3026 ft 203 kts 225°
2026-05-04 19:08 55.74095 12.84750 3005 ft 205 kts 225°
2026-05-04 19:09 55.73026 12.83080 2820 ft 204 kts 225°
2026-05-04 19:09 55.71960 12.81416 2553 ft 204 kts 225°
2026-05-04 19:09 55.70890 12.79746 2281 ft 205 kts 225°
2026-05-04 19:09 55.69817 12.78072 1997 ft 207 kts 225°
2026-05-04 19:10 55.68734 12.76386 1715 ft 207 kts 225°
2026-05-04 19:10 55.67664 12.74721 1429 ft 201 kts 224°
2026-05-04 19:10 55.66645 12.73139 1183 ft 186 kts 225°
2026-05-04 19:10 55.65714 12.71694 944 ft 169 kts 224°
2026-05-04 19:11 55.64882 12.70364 720 ft 154 kts 225°
2026-05-04 19:11 55.64093 12.69158 494 ft 146 kts 223°
2026-05-04 19:11 55.63342 12.68010 315 ft 141 kts 225°
2026-05-04 19:11 55.62609 12.66867 120 ft 140 kts 225°
2026-05-04 19:12 55.61900 12.65753 28 ft 126 kts 219°
2026-05-04 19:12 55.61240 12.64525 19 ft 33 kts 250°
2026-05-04 19:12 55.61187 12.64184 16 ft 22 kts 289°
2026-05-04 19:13 55.61219 12.64127 17 ft 0 kts 325°
2026-05-04 19:13 55.61243 12.64109 18 ft 10 kts 342°
2026-05-04 19:13 55.61302 12.64147 19 ft 10 kts 30°
2026-05-04 19:14 55.61376 12.64223 21 ft 14 kts 31°
2026-05-04 19:14 55.61456 12.64312 23 ft 12 kts 32°
2026-05-04 19:14 55.61526 12.64394 26 ft 18 kts 34°
2026-05-04 19:14 55.61648 12.64536 25 ft 22 kts 30°
2026-05-04 19:15 55.61796 12.64539 23 ft 22 kts 347°
2026-05-04 19:15 55.61944 12.64504 21 ft 15 kts
2026-05-04 19:15 55.62003 12.64539 20 ft 8 kts 25°
2026-05-04 19:15 55.62038 12.64573 19 ft 0 kts 30°
2026-05-04 19:16 55.62039 12.64573 19 ft 0 kts 30°
2026-05-04 19:16 55.62070 12.64605 19 ft 10 kts 30°
2026-05-04 19:16 55.62120 12.64650 22 ft 6 kts
2026-05-04 19:17 55.62156 12.64613 22 ft 9 kts 307°
2026-05-04 19:17 55.62180 12.64555 21 ft 2 kts 306°
2026-05-04 19:17 55.62181 12.64553 21 ft 1 kts 306°
2026-05-04 19:17 55.62213 12.64471 19 ft 15 kts 301°
2026-05-04 19:18 55.62260 12.64336 18 ft 14 kts 302°
2026-05-04 19:18 55.62320 12.64177 15 ft 17 kts 303°
2026-05-04 19:18 55.62383 12.64004 19 ft 16 kts 301°
2026-05-04 19:18 55.62450 12.63842 20 ft 17 kts 318°
2026-05-04 19:19 55.62533 12.63772 23 ft 10 kts 348°
2026-05-04 19:19 55.62571 12.63770 23 ft 6 kts
2026-05-04 19:19 55.62584 12.63773 23 ft 0 kts 10°
2026-05-04 19:20 55.62585 12.63774 23 ft 1 kts 11°
2026-05-04 19:20 55.62599 12.63780 24 ft 5 kts 17°
2026-05-04 19:20 55.62676 12.63849 26 ft 13 kts 32°
2026-05-04 19:20 55.62732 12.63912 21 ft 15 kts 33°
2026-05-04 19:21 55.62812 12.64007 20 ft 9 kts 45°
2026-05-04 19:21 55.62837 12.64100 22 ft 8 kts 65°
2026-05-04 19:21 55.62856 12.64195 19 ft 8 kts 83°
2026-05-04 19:21 55.62853 12.64262 19 ft 2 kts 100°
2026-05-04 19:22 55.62853 12.64266 19 ft 0 kts 100°